Retour au catalogue

THORAD AGENA D DEB

ActifPO
NORAD 4855·DEBRIS·🇺🇸 United States

Lancé Apr 8, 1970 depuis Vandenberg Space Force Base

Loading…

Prochains Passages

TLE

Source: Space-Track
1 04855U 70025EK  26223.83296836  .00000283  00000-0  34755-3 0  9996
2 04855  99.9533 179.4119 0014209 280.0308 136.7290 13.74872789804625

Suivez THORAD AGENA D DEB en temps réel avec AllMySat

Download on the App Store